FIN4IR LPPT-LPMA

Flight info

Callsign FIN4IR
Flight time N/A
Altitude 41000
Route LPPT/02 ULVOT DCT GALPA DCT RAKUN RAKUN1P
Aircraft A359/H-SDE2E3GHIJ3J4J5LM1ORWXY/LB1D1

Departure

Time N/A
Airport Lisbon Humberto Delgado Airport (LPPT)

Arrival

Time 2026-05-07 19:00
Airport Cristiano Ronaldo International Airport (LPMA)
Time Latitude Longitude Altitude Speed Heading
2026-05-07 18:04 36.53561 -11.66447 41016 ft 470 kts 230°
2026-05-07 18:04 36.48744 -11.73703 41016 ft 470 kts 230°
2026-05-07 18:05 36.44591 -11.79932 41016 ft 470 kts 230°
2026-05-07 18:05 36.41103 -11.85147 41016 ft 470 kts 230°
2026-05-07 18:06 36.36946 -11.91347 41016 ft 470 kts 230°
2026-05-07 18:06 36.32776 -11.97555 41016 ft 470 kts 230°
2026-05-07 18:07 36.28601 -12.03756 41016 ft 470 kts 230°
2026-05-07 18:07 36.24431 -12.09940 41016 ft 470 kts 230°
2026-05-07 18:08 36.20251 -12.16127 41016 ft 470 kts 230°
2026-05-07 18:08 36.16063 -12.22313 41016 ft 470 kts 230°
2026-05-07 18:09 36.11880 -12.28483 41016 ft 470 kts 230°
2026-05-07 18:09 36.07659 -12.34695 41016 ft 470 kts 230°
2026-05-07 18:10 36.03437 -12.40898 41016 ft 470 kts 230°
2026-05-07 18:10 35.98559 -12.48052 41016 ft 470 kts 230°
2026-05-07 18:11 35.95059 -12.53175 41016 ft 470 kts 230°
2026-05-07 18:11 35.90160 -12.60333 41016 ft 470 kts 230°
2026-05-07 18:12 35.86641 -12.65437 41016 ft 470 kts 229°
2026-05-07 18:12 35.82437 -12.71549 41016 ft 470 kts 230°
2026-05-07 18:13 35.78219 -12.77685 41016 ft 470 kts 230°
2026-05-07 18:13 35.74021 -12.83779 41016 ft 470 kts 230°
2026-05-07 18:14 35.69089 -12.90923 41016 ft 470 kts 230°
2026-05-07 18:14 35.65584 -12.95989 41016 ft 470 kts 230°
2026-05-07 18:15 35.60641 -13.03122 41016 ft 470 kts 230°
2026-05-07 18:15 35.57142 -13.08162 41016 ft 470 kts 230°
2026-05-07 18:16 35.52191 -13.15279 41016 ft 470 kts 230°
2026-05-07 18:16 35.47965 -13.21344 41016 ft 470 kts 230°
2026-05-07 18:17 35.44460 -13.26366 41016 ft 470 kts 230°
2026-05-07 18:17 35.40221 -13.32428 41016 ft 470 kts 230°
2026-05-07 18:18 35.35253 -13.39521 41016 ft 470 kts 230°
2026-05-07 18:18 35.31022 -13.45549 41016 ft 470 kts 230°
2026-05-07 18:19 35.27482 -13.50586 41016 ft 470 kts 230°
2026-05-07 18:19 35.23238 -13.56613 41016 ft 470 kts 230°
2026-05-07 18:20 35.18992 -13.62633 41016 ft 470 kts 230°
2026-05-07 18:20 35.14739 -13.68666 41016 ft 470 kts 229°
2026-05-07 18:21 35.09777 -13.75705 41016 ft 470 kts 229°
2026-05-07 18:21 35.06243 -13.80698 41016 ft 470 kts 229°
2026-05-07 18:22 35.01961 -13.86730 41016 ft 470 kts 229°
2026-05-07 18:22 34.96999 -13.93705 41016 ft 470 kts 229°
2026-05-07 18:23 34.92718 -13.99710 41016 ft 470 kts 229°
2026-05-07 18:23 34.89142 -14.04716 41016 ft 470 kts 229°
2026-05-07 18:24 34.84846 -14.10680 41016 ft 470 kts 229°
2026-05-07 18:24 34.79827 -14.17658 41016 ft 470 kts 229°
2026-05-07 18:25 34.76251 -14.22635 40971 ft 467 kts 229°
2026-05-07 18:25 34.73441 -14.26544 40472 ft 464 kts 229°
2026-05-07 18:25 34.72013 -14.28529 40024 ft 465 kts 229°
2026-05-07 18:25 34.69185 -14.32458 39267 ft 466 kts 229°
2026-05-07 18:26 34.67767 -14.34425 39082 ft 467 kts 229°
2026-05-07 18:26 34.63471 -14.40381 39018 ft 469 kts 229°
2026-05-07 18:27 34.59198 -14.46296 39015 ft 469 kts 229°
2026-05-07 18:27 34.54182 -14.53225 39014 ft 469 kts 229°
2026-05-07 18:28 34.49890 -14.59146 38709 ft 469 kts 229°
2026-05-07 18:28 34.48442 -14.61141 38218 ft 472 kts 229°
2026-05-07 18:28 34.46270 -14.64132 37333 ft 478 kts 229°
2026-05-07 18:28 34.44109 -14.67108 36686 ft 477 kts 229°
2026-05-07 18:29 34.41925 -14.70124 36254 ft 470 kts 229°
2026-05-07 18:29 34.39803 -14.73027 35967 ft 455 kts 227°
2026-05-07 18:29 34.37669 -14.75772 35597 ft 443 kts 226°
2026-05-07 18:29 34.35562 -14.78443 35048 ft 436 kts 226°
2026-05-07 18:30 34.33484 -14.81069 34419 ft 431 kts 226°
2026-05-07 18:30 34.31446 -14.83643 33779 ft 427 kts 226°
2026-05-07 18:30 34.29419 -14.86203 33125 ft 423 kts 226°
2026-05-07 18:30 34.27376 -14.88782 32181 ft 426 kts 226°
2026-05-07 18:31 34.25351 -14.91337 31054 ft 423 kts 226°
2026-05-07 18:31 34.23337 -14.93877 29871 ft 420 kts 226°
2026-05-07 18:31 34.21369 -14.96358 28783 ft 414 kts 226°
2026-05-07 18:31 34.19397 -14.98842 27961 ft 401 kts 226°
2026-05-07 18:32 34.17509 -15.01218 27690 ft 391 kts 226°
2026-05-07 18:32 34.15656 -15.03550 27385 ft 386 kts 226°
2026-05-07 18:32 34.13798 -15.05886 27052 ft 382 kts 226°
2026-05-07 18:32 34.11984 -15.08164 26717 ft 378 kts 226°
2026-05-07 18:33 34.10160 -15.10454 26373 ft 375 kts 226°
2026-05-07 18:33 34.08372 -15.12699 26033 ft 372 kts 226°
2026-05-07 18:33 34.06599 -15.14922 25695 ft 369 kts 226°
2026-05-07 18:33 34.04220 -15.17902 25240 ft 365 kts 226°
2026-05-07 18:34 34.02474 -15.20089 24906 ft 363 kts 226°
2026-05-07 18:34 34.00748 -15.22249 24575 ft 360 kts 226°
2026-05-07 18:34 33.99596 -15.23690 24354 ft 358 kts 226°
2026-05-07 18:34 33.97866 -15.25852 24021 ft 356 kts 226°
2026-05-07 18:35 33.96171 -15.27969 23696 ft 353 kts 226°
2026-05-07 18:35 33.94463 -15.30101 23367 ft 351 kts 226°
2026-05-07 18:35 33.92219 -15.32902 22934 ft 348 kts 226°
2026-05-07 18:35 33.90559 -15.34971 22614 ft 346 kts 226°
2026-05-07 18:36 33.88882 -15.37055 22290 ft 344 kts 226°
2026-05-07 18:36 33.87788 -15.38406 22080 ft 343 kts 226°
2026-05-07 18:36 33.86123 -15.40462 21759 ft 341 kts 226°
2026-05-07 18:36 33.84492 -15.42481 21442 ft 339 kts 226°
2026-05-07 18:37 33.82850 -15.44516 21123 ft 337 kts 226°
2026-05-07 18:37 33.81239 -15.46514 20723 ft 337 kts 226°
2026-05-07 18:37 33.79591 -15.48558 20150 ft 341 kts 226°
2026-05-07 18:37 33.77956 -15.50587 19707 ft 341 kts 226°
2026-05-07 18:38 33.76297 -15.52644 19315 ft 339 kts 226°
2026-05-07 18:38 33.74677 -15.54652 18938 ft 337 kts 226°
2026-05-07 18:38 33.73041 -15.56680 18554 ft 335 kts 226°
2026-05-07 18:38 33.71439 -15.58664 18177 ft 333 kts 226°
2026-05-07 18:39 33.69823 -15.60664 17798 ft 331 kts 226°
2026-05-07 18:39 33.68240 -15.62623 17426 ft 329 kts 226°
2026-05-07 18:39 33.66642 -15.64598 17051 ft 327 kts 226°
2026-05-07 18:39 33.64545 -15.67201 16557 ft 325 kts 226°
2026-05-07 18:40 33.63503 -15.68496 16311 ft 324 kts 226°
2026-05-07 18:40 33.61956 -15.70416 15947 ft 322 kts 225°
2026-05-07 18:40 33.60386 -15.72357 15460 ft 324 kts 225°
2026-05-07 18:40 33.58824 -15.74283 14964 ft 327 kts 225°
2026-05-07 18:41 33.57229 -15.76249 14460 ft 329 kts 225°
2026-05-07 18:41 33.55659 -15.78181 13962 ft 323 kts 225°
2026-05-07 18:41 33.53571 -15.80667 13296 ft 314 kts 224°
2026-05-07 18:41 33.52541 -15.81874 12962 ft 310 kts 224°
2026-05-07 18:42 33.51006 -15.83668 12460 ft 305 kts 224°
2026-05-07 18:42 33.49510 -15.85417 11964 ft 303 kts 224°
2026-05-07 18:42 33.48001 -15.87182 11462 ft 302 kts 224°
2026-05-07 18:42 33.46510 -15.88927 11096 ft 301 kts 224°
2026-05-07 18:43 33.45017 -15.90673 11018 ft 298 kts 224°
2026-05-07 18:43 33.43544 -15.92397 11010 ft 299 kts 224°
2026-05-07 18:43 33.42067 -15.94123 11007 ft 299 kts 224°
2026-05-07 18:43 33.40570 -15.95873 11006 ft 299 kts 224°
2026-05-07 18:44 33.39091 -15.97601 10878 ft 300 kts 224°
2026-05-07 18:44 33.37598 -15.99344 10625 ft 296 kts 224°
2026-05-07 18:44 33.36151 -16.01033 10377 ft 291 kts 224°
2026-05-07 18:44 33.34705 -16.02720 10126 ft 288 kts 224°
2026-05-07 18:45 33.33281 -16.04380 9909 ft 287 kts 224°
2026-05-07 18:45 33.31842 -16.06057 9784 ft 287 kts 224°
2026-05-07 18:45 33.29938 -16.08276 9618 ft 287 kts 224°
2026-05-07 18:45 33.28988 -16.09382 9534 ft 287 kts 224°
2026-05-07 18:46 33.27575 -16.11026 9386 ft 284 kts 224°
2026-05-07 18:46 33.26186 -16.12642 9219 ft 269 kts 224°
2026-05-07 18:46 33.24896 -16.14142 9091 ft 254 kts 224°
2026-05-07 18:46 33.23635 -16.15607 8966 ft 251 kts 224°
2026-05-07 18:47 33.21973 -16.17538 8802 ft 250 kts 224°
2026-05-07 18:47 33.21144 -16.18500 8721 ft 249 kts 224°
2026-05-07 18:47 33.19914 -16.19928 8602 ft 249 kts 224°
2026-05-07 18:47 33.18262 -16.21845 8445 ft 248 kts 224°
2026-05-07 18:48 33.17437 -16.22801 8368 ft 248 kts 224°
2026-05-07 18:48 33.15791 -16.24709 8181 ft 248 kts 224°
2026-05-07 18:48 33.14969 -16.25662 8054 ft 247 kts 224°
2026-05-07 18:48 33.13730 -16.27096 7842 ft 246 kts 224°
2026-05-07 18:49 33.12513 -16.28506 7622 ft 245 kts 224°
2026-05-07 18:49 33.11298 -16.29912 7398 ft 245 kts 224°
2026-05-07 18:49 33.10072 -16.31330 7168 ft 244 kts 224°
2026-05-07 18:49 33.08453 -16.33203 6863 ft 243 kts 224°
2026-05-07 18:50 33.07646 -16.34135 6711 ft 242 kts 224°
2026-05-07 18:50 33.06450 -16.35518 6486 ft 241 kts 224°
2026-05-07 18:50 33.05238 -16.36917 6257 ft 240 kts 224°
2026-05-07 18:50 33.04049 -16.38290 6033 ft 240 kts 224°
2026-05-07 18:51 33.02848 -16.39676 5806 ft 239 kts 224°
2026-05-07 18:51 33.01666 -16.41039 5583 ft 238 kts 224°
2026-05-07 18:51 33.00486 -16.42399 5360 ft 237 kts 224°
2026-05-07 18:51 32.99290 -16.43778 5134 ft 237 kts 224°
2026-05-07 18:52 32.98119 -16.45127 4913 ft 236 kts 224°
2026-05-07 18:52 32.96934 -16.46491 4689 ft 235 kts 224°
2026-05-07 18:52 32.95772 -16.47830 4470 ft 234 kts 224°
2026-05-07 18:52 32.94599 -16.49179 4248 ft 233 kts 224°
2026-05-07 18:53 32.93443 -16.50509 4030 ft 233 kts 224°
2026-05-07 18:53 32.91865 -16.52247 3799 ft 232 kts 222°
2026-05-07 18:53 32.91063 -16.53104 3694 ft 232 kts 222°
2026-05-07 18:53 32.89871 -16.54375 3537 ft 231 kts 222°
2026-05-07 18:54 32.88663 -16.55652 3379 ft 231 kts 222°
2026-05-07 18:54 32.87479 -16.56903 3222 ft 227 kts 222°
2026-05-07 18:54 32.86305 -16.58147 3069 ft 222 kts 222°
2026-05-07 18:54 32.85190 -16.59356 3007 ft 213 kts 224°
2026-05-07 18:55 32.84148 -16.60567 2874 ft 208 kts 225°
2026-05-07 18:55 32.83149 -16.61744 2786 ft 192 kts 225°
2026-05-07 18:55 32.82258 -16.62793 2672 ft 172 kts 225°
2026-05-07 18:55 32.81191 -16.64049 2575 ft 156 kts 225°
2026-05-07 18:56 32.80693 -16.64634 2523 ft 146 kts 225°
2026-05-07 18:56 32.79989 -16.65464 2467 ft 142 kts 225°
2026-05-07 18:56 32.79287 -16.66300 2382 ft 141 kts 225°
2026-05-07 18:56 32.78598 -16.67118 2276 ft 141 kts 225°
2026-05-07 18:57 32.77906 -16.67935 2156 ft 141 kts 224°
2026-05-07 18:57 32.76997 -16.69005 1958 ft 141 kts 224°
2026-05-07 18:57 32.76532 -16.69551 1847 ft 140 kts 224°
2026-05-07 18:57 32.75614 -16.70626 1615 ft 139 kts 224°
2026-05-07 18:58 32.75149 -16.71170 1491 ft 139 kts 224°
2026-05-07 18:58 32.74465 -16.71972 1306 ft 139 kts 224°
2026-05-07 18:58 32.73775 -16.72778 1117 ft 138 kts 224°
2026-05-07 18:58 32.73091 -16.73579 929 ft 138 kts 224°
2026-05-07 18:59 32.72414 -16.74370 743 ft 138 kts 224°
2026-05-07 18:59 32.71733 -16.75167 555 ft 137 kts 224°
2026-05-07 18:59 32.71049 -16.75967 366 ft 137 kts 224°
2026-05-07 18:59 32.70369 -16.76762 209 ft 133 kts 224°
2026-05-07 19:00 32.69820 -16.77410 221 ft 82 kts 225°
2026-05-07 19:00 32.69565 -16.77707 212 ft 20 kts 224°
2026-05-07 19:00 32.69464 -16.77826 203 ft 24 kts 225°
2026-05-07 19:00 32.69358 -16.77951 192 ft 11 kts 224°
2026-05-07 19:01 32.69312 -16.77961 188 ft 7 kts 154°
2026-05-07 19:01 32.69294 -16.77928 187 ft 0 kts 107°
2026-05-07 19:02 32.69293 -16.77920 186 ft 2 kts 105°
2026-05-07 19:02 32.69291 -16.77913 186 ft 0 kts 102°
2026-05-07 19:02 32.69291 -16.77911 186 ft 0 kts 101°
2026-05-07 19:03 32.69289 -16.77900 186 ft 2 kts 101°
2026-05-07 19:03 32.69291 -16.77866 188 ft 5 kts 72°
2026-05-07 19:03 32.69313 -16.77826 190 ft 6 kts 50°
2026-05-07 19:03 32.69362 -16.77762 194 ft 11 kts 46°
2026-05-07 19:04 32.69402 -16.77712 196 ft 14 kts 45°
2026-05-07 19:04 32.69460 -16.77643 198 ft 7 kts 45°
2026-05-07 19:04 32.69482 -16.77609 198 ft 4 kts 76°
2026-05-07 19:04 32.69463 -16.77578 195 ft 7 kts 139°
2026-05-07 19:05 32.69444 -16.77559 192 ft 2 kts 138°
2026-05-07 19:05 32.69442 -16.77557 192 ft 0 kts 138°